Change the Weather History Date:

Wednesday, May 15, 2013

  Actual Average (KMGW) Record (KMGW)
Temperature  
Mean Temperature 62 °F 61 °F  
Max Temperature 78 °F 72 °F 90 °F (1962)
Min Temperature 46 °F 50 °F 35 °F (1984)
Degree Days  
Heating Degree Days 3 6  
Month to date heating degree days 103  
Since 1 July heating degree days 5086  
Cooling Degree Days 0 2  
Month to date cooling degree days 16  
Year to date cooling degree days 32  
Growing Degree Days 12 (Base 50)    
Moisture  
Dew Point 48 °F    
Average Humidity 57    
Maximum Humidity 88    
Minimum Humidity 34    
Precipitation  
Precipitation 0.00 in 0.16 in 1.52 in (2014)
Month to date precipitation 2.15  
Year to date precipitation 14.73  
Sea Level Pressure  
Sea Level Pressure 29.93 in    
Wind  
Wind Speed 13 mph (WSW)    
Max Wind Speed 20 mph    
Max Gust Speed 30 mph    
Visibility 10 miles    
Events      
T = Trace of Precipitation, MM = Missing Value Source: NWS Daily Summary

Daily Weather History Graph

Daily Weather History Graph

Search for Another Location

Airport or City:

Trip Planner

Search our weather history database for the weather conditions in past years. The results will help you decide how hot, cold, wet, or windy it might be!

Date:

Astronomy

May. 15, 2013 Rise Set
Actual Time 6:02 AM EDT 8:25 PM EDT
Civil Twilight 5:32 AM EDT 8:55 PM EDT
Nautical Twilight 4:55 AM EDT 9:33 PM EDT
Astronomical Twilight 4:13 AM EDT 10:14 PM EDT
Moon 10:36 AM EDT (5/15) 12:10 AM EDT (5/15)
Length of Visible Light 15h 22m
Length of Day
14h 22m
Waxing Crescent, 26% of the Moon is Illuminated
May 15
Waxing Crescent
May 18
First Quarter
May 25
Full
May 31
Last Quarter
Jun 8
New

Hourly Weather History & Observations

Time (EDT) Temp. Windchill Dew Point Humidity Pressure Visibility Wind Dir Wind Speed Gust Speed Precip Events Conditions
12:15 AM 46.4 °F 41.5 °F 33.8 °F 62% 29.99 in 10.0 mi SSE 10.4 mph - N/A   Overcast
12:35 AM 46.4 °F 41.5 °F 33.8 °F 62% 29.97 in 10.0 mi SSE 10.4 mph - N/A   Mostly Cloudy
12:55 AM 48.2 °F - 33.8 °F 58% 29.96 in 10.0 mi South 10.4 mph - N/A   Mostly Cloudy
1:15 AM 46.4 °F 41.5 °F 33.8 °F 62% 29.95 in 10.0 mi South 10.4 mph - N/A   Scattered Clouds
1:35 AM 46.4 °F 41.9 °F 33.8 °F 62% 29.95 in 10.0 mi South 9.2 mph - N/A   Scattered Clouds
1:55 AM 48.2 °F - 33.8 °F 58% 29.95 in 10.0 mi South 10.4 mph - N/A   Scattered Clouds
2:15 AM 50.0 °F - 33.8 °F 54% 29.95 in 10.0 mi SSW 9.2 mph - N/A   Mostly Cloudy
2:35 AM 51.8 °F - 35.6 °F 54% 29.95 in 10.0 mi SSW 11.5 mph - N/A   Mostly Cloudy
2:55 AM 53.6 °F - 37.4 °F 54% 29.94 in 10.0 mi SW 10.4 mph 17.3 mph N/A   Scattered Clouds
3:15 AM 53.6 °F - 39.2 °F 58% 29.94 in 10.0 mi SW 11.5 mph 17.3 mph N/A   Scattered Clouds
3:35 AM 53.6 °F - 41.0 °F 62% 29.94 in 10.0 mi SW 11.5 mph - N/A   Mostly Cloudy
3:55 AM 55.4 °F - 42.8 °F 63% 29.94 in 10.0 mi SW 10.4 mph 18.4 mph N/A   Scattered Clouds
4:15 AM 55.4 °F - 44.6 °F 67% 29.95 in 10.0 mi WSW 10.4 mph 16.1 mph N/A   Mostly Cloudy
4:35 AM 57.2 °F - 46.4 °F 67% 29.94 in 10.0 mi WSW 12.7 mph 19.6 mph N/A   Mostly Cloudy
5:00 AM 59.0 °F - 48.2 °F 67% 29.94 in 10.0 mi WSW 15.0 mph 23.0 mph N/A   Mostly Cloudy
5:20 AM 59.0 °F - 50.0 °F 72% 29.94 in 10.0 mi WSW 15.0 mph 25.3 mph N/A   Mostly Cloudy
5:40 AM 57.2 °F - 53.6 °F 88% 29.95 in 10.0 mi WSW 11.5 mph 24.2 mph N/A   Overcast
6:00 AM 57.2 °F - 51.8 °F 82% 29.95 in 10.0 mi WSW 13.8 mph 19.6 mph N/A   Scattered Clouds
6:20 AM 59.0 °F - 51.8 °F 77% 29.94 in 10.0 mi WSW 13.8 mph 19.6 mph N/A   Clear
6:40 AM 59.0 °F - 51.8 °F 77% 29.94 in 10.0 mi SW 15.0 mph 24.2 mph N/A   Clear
7:00 AM 59.0 °F - 51.8 °F 77% 29.94 in 10.0 mi SW 11.5 mph 20.7 mph N/A   Clear
7:20 AM 60.8 °F - 53.6 °F 77% 29.95 in 10.0 mi SW 11.5 mph 21.9 mph N/A   Clear
7:40 AM 60.8 °F - 53.6 °F 77% 29.95 in 10.0 mi SW 10.4 mph 23.0 mph N/A   Clear
8:00 AM 60.8 °F - 53.6 °F 77% 29.95 in 10.0 mi SW 13.8 mph 19.6 mph N/A   Scattered Clouds
8:20 AM 62.6 °F - 53.6 °F 72% 29.95 in 10.0 mi SW 15.0 mph 21.9 mph N/A   Clear
8:40 AM 62.6 °F - 53.6 °F 72% 29.97 in 10.0 mi WSW 11.5 mph 21.9 mph N/A   Clear
9:00 AM 62.6 °F - 53.6 °F 72% 29.96 in 10.0 mi SW 12.7 mph 20.7 mph N/A   Clear
9:20 AM 64.4 °F - 53.6 °F 68% 29.96 in 10.0 mi WSW 13.8 mph 24.2 mph N/A   Clear
9:40 AM 66.2 °F - 53.6 °F 64% 29.95 in 10.0 mi WSW 16.1 mph 21.9 mph N/A   Clear
10:00 AM 68.0 °F - 53.6 °F 60% 29.94 in 10.0 mi WSW 15.0 mph 26.5 mph N/A   Clear
10:20 AM 68.0 °F - 53.6 °F 60% 29.94 in 10.0 mi SW 17.3 mph 26.5 mph N/A   Clear
10:40 AM 68.0 °F - 53.6 °F 60% 29.94 in 10.0 mi SW 10.4 mph 26.5 mph N/A   Clear
11:00 AM 68.0 °F - 53.6 °F 60% 29.93 in 10.0 mi WSW 15.0 mph 26.5 mph N/A   Clear
11:20 AM 69.8 °F - 51.8 °F 53% 29.93 in 10.0 mi WSW 13.8 mph 25.3 mph N/A   Clear
11:40 AM 69.8 °F - 51.8 °F 53% 29.92 in 10.0 mi WSW 11.5 mph 26.5 mph N/A   Clear
12:00 PM 71.6 °F - 51.8 °F 50% 29.92 in 10.0 mi SW 11.5 mph 21.9 mph N/A   Scattered Clouds
12:20 PM 71.6 °F - 51.8 °F 50% 29.92 in 10.0 mi WSW 15.0 mph 23.0 mph N/A   Scattered Clouds
12:40 PM 69.8 °F - 51.8 °F 53% 29.93 in 10.0 mi WSW 16.1 mph 25.3 mph N/A   Clear
1:00 PM 71.6 °F - 53.6 °F 53% 29.94 in 10.0 mi West 11.5 mph 21.9 mph N/A   Clear
1:20 PM 73.4 °F - 53.6 °F 50% 29.93 in 10.0 mi WSW 13.8 mph 25.3 mph N/A   Clear
1:40 PM 73.4 °F - 53.6 °F 50% 29.92 in 10.0 mi WSW 12.7 mph 19.6 mph N/A   Clear
2:00 PM 75.2 °F - 51.8 °F 44% 29.91 in 10.0 mi WSW 17.3 mph 25.3 mph N/A   Clear
2:20 PM 75.2 °F - 51.8 °F 44% 29.90 in 10.0 mi WSW 15.0 mph 27.6 mph N/A   Clear
2:40 PM 77.0 °F - 51.8 °F 41% 29.89 in 10.0 mi WSW 15.0 mph 28.8 mph N/A   Clear
3:00 PM 77.0 °F - 50.0 °F 39% 29.88 in 10.0 mi WSW 19.6 mph 27.6 mph N/A   Clear
3:20 PM 78.8 °F - 50.0 °F 36% 29.87 in 10.0 mi WSW 18.4 mph 27.6 mph N/A   Clear
3:40 PM 78.8 °F - 48.2 °F 34% 29.86 in 10.0 mi WSW 13.8 mph 25.3 mph N/A   Clear
6:20 PM 77.0 °F - 50.0 °F 39% 29.85 in 10.0 mi West 18.4 mph 29.9 mph N/A   Clear
7:00 PM 77.0 °F - 50.0 °F 39% 29.86 in 10.0 mi WSW 17.3 mph 25.3 mph N/A   Scattered Clouds
7:20 PM 75.2 °F - 50.0 °F 41% 29.86 in 10.0 mi West 13.8 mph 21.9 mph N/A   Scattered Clouds
7:40 PM 73.4 °F - 50.0 °F 44% 29.88 in 10.0 mi West 12.7 mph 25.3 mph N/A   Scattered Clouds
8:00 PM 73.4 °F - 50.0 °F 44% 29.88 in 10.0 mi West 13.8 mph 18.4 mph N/A   Mostly Cloudy
8:20 PM 73.4 °F - 50.0 °F 44% 29.88 in 10.0 mi West 17.3 mph 29.9 mph N/A   Scattered Clouds
8:40 PM 71.6 °F - 50.0 °F 46% 29.89 in 10.0 mi West 15.0 mph 25.3 mph N/A   Scattered Clouds
9:00 PM 71.6 °F - 50.0 °F 46% 29.90 in 10.0 mi West 13.8 mph 23.0 mph N/A   Scattered Clouds
9:20 PM 71.6 °F - 50.0 °F 46% 29.90 in 10.0 mi West 17.3 mph 28.8 mph N/A   Clear
10:00 PM 69.8 °F - 50.0 °F 49% 29.92 in 10.0 mi WSW 16.1 mph 21.9 mph N/A   Clear
10:20 PM 69.8 °F - 50.0 °F 49% 29.92 in 10.0 mi West 17.3 mph 23.0 mph N/A   Scattered Clouds
10:40 PM 69.8 °F - 51.8 °F 53% 29.92 in 10.0 mi WSW 16.1 mph 21.9 mph N/A   Scattered Clouds
11:00 PM 69.8 °F - 51.8 °F 53% 29.92 in 10.0 mi WSW 12.7 mph 25.3 mph N/A   Scattered Clouds
11:20 PM 69.8 °F - 48.2 °F 46% 29.92 in 10.0 mi WSW 18.4 mph 28.8 mph N/A   Mostly Cloudy
11:40 PM 69.8 °F - 46.4 °F 43% 29.92 in 10.0 mi WSW 15.0 mph 26.5 mph N/A   Mostly Cloudy